Location: Bartshausen
(51.8454°N, 9.8167°E)
Time: 09:09:40
(UTC+00:00)

Cosmos 1802 Rocket - Pass Details

Date: 08 November 2025
Orbit: 953 x 1011 km, 82.9° (Epoch: 11 December)

Event Time Altitude Azimuth Distance (km) Brightness Sun altitude
Rises 05:02:10 0° 345° (NNW) 3,747 6.8 -13.4°
Reaches altitude 10° 05:04:53 10° 338° (NNW) 2,786 6.1 -13.0°
Maximum altitude 05:10:41 38° 273° (W) 1,474 4.5 -12.1°
Drops below altitude 10° 05:16:23 10° 208° (SSW) 2,735 6.2 -11.2°
Sets 05:19:02 0° 200° (SSW) 3,669 6.9 -10.8°
